Location: Home
(42.5358°N, 72.7383°W)
Time: 17:41:47
(UTC-05:00)

A-11 Canister half - Pass Details

Date: 30 November 2021
Orbit: 1516 x 1684 km, 47.2° (Epoch: 18 January)

Event Time Altitude Azimuth Distance (km) Brightness Sun altitude
Rises 07:36:01 0° 229° (SW) 4,759 11.4 4.7°
Reaches altitude 10° 07:39:04 10° 227° (SW) 3,799 11.0 5.2°
Maximum altitude 07:48:41 69° 146° (SSE) 1,731 9.8 6.6°
Drops below altitude 10° 07:58:39 10° 66° (ENE) 3,929 11.6 8.0°
Sets 08:01:51 0° 65° (ENE) 4,930 12.0 8.5°
